| time (UTC) | temp F | wind direction | speed MPH | gust MPH | rain 1hr in | rain 24hr in | rain mn in | humidity % | barometer mb |
| 20260901140050 | 66 | 121 | 1.0 | 3.0 | 0.00 | 0.16 | 0.16 | 85 | 1004.1 |
| 20260901133101 | 66 | 148 | 1.0 | 3.0 | 0.01 | 0.16 | 0.16 | 83 | 1004.2 |
| 20260901130035 | 67 | 138 | 1.0 | 3.0 | 0.01 | 0.16 | 0.16 | 84 | 1004.1 |
| 20260901123020 | 64 | 109 | 1.0 | 3.0 | 0.15 | 0.15 | 0.15 | 79 | 1004.1 |
| 20260901120110 | 71 | 305 | 2.0 | 7.0 | 0.15 | 0.15 | 0.15 | 63 | 1004.1 |
| 20260901113100 | 70 | 242 | 2.0 | 5.0 | 0.00 | 0.00 | 0.00 | 64 | 1003.9 |
| 20260901110050 | 71 | 272 | 2.0 | 7.0 | 0.00 | 0.00 | 0.00 | 63 | 1003.9 |
| 20260901103040 | 71 | 217 | 2.0 | 6.0 | 0.00 | 0.00 | 0.00 | 65 | 1003.8 |
| 20260901100031 | 68 | 202 | 2.0 | 8.0 | 0.00 | 0.00 | 0.00 | 68 | 1003.8 |
| 20260901093021 | 68 | 208 | 1.0 | 5.0 | 0.00 | 0.00 | 0.00 | 70 | 1003.6 |
| 20260901090113 | 64 | 214 | 0.0 | 3.0 | 0.00 | 0.00 | 0.00 | 74 | 1003.7 |
| 20260901083101 | 65 | 322 | 1.0 | 5.0 | 0.00 | 0.00 | 0.00 | 72 | 1003.6 |
| 20260901080051 | 66 | 216 | 1.0 | 3.0 | 0.00 | 0.00 | 0.00 | 74 | 1003.4 |
| 20260901073041 | 64 | 162 | 1.0 | 3.0 | 0.00 | 0.00 | 0.00 | 77 | 1003.3 |
| 20260901070031 | 64 | 250 | 1.0 | 6.0 | 0.00 | 0.00 | 0.00 | 80 | 1003.1 |
| 20260901063021 | 62 | 250 | 1.0 | 5.0 | 0.00 | 0.00 | 0.00 | 92 | 1003.1 |
| 20260901060111 | 59 | 238 | 0.0 | 3.0 | 0.00 | 0.00 | 0.00 | 98 | 1003.1 |
| 20260901053101 | 57 | 193 | 0.0 | 2.0 | 0.00 | 0.00 | 0.00 | 99 | 1003.0 |
| 20260901050051 | 56 | 90 | 0.0 | 1.0 | 0.00 | 0.00 | 0.00 | 97 | 1003.0 |
| 20260901043042 | 55 | 90 | 0.0 | 1.0 | 0.00 | 0.00 | 0.00 | 96 | 1002.9 |
| 20260901040051 | 55 | 142 | 0.0 | 2.0 | 0.00 | 0.00 | 0.00 | 96 | 1002.9 |
| 20260901033041 | 56 | 180 | 0.0 | 2.0 | 0.00 | 0.00 | 0.00 | 96 | 1002.9 |
| 20260901030113 | 57 | 180 | 0.0 | 1.0 | 0.00 | 0.00 | 0.00 | 96 | 1002.8 |
| 20260901023101 | 57 | 180 | 0.0 | 2.0 | 0.00 | 0.00 | 0.00 | 96 | 1002.7 |
| 20260901020051 | 57 | 180 | 0.0 | 1.0 | 0.00 | 0.00 | 0.00 | 96 | 1002.7 |
| 20260901013042 | 57 | 180 | 0.0 | 1.0 | 0.00 | 0.00 | 0.00 | 95 | 1002.7 |
| 20260901010032 | 57 | 180 | 0.0 | 2.0 | 0.00 | 0.00 | 0.00 | 94 | 1002.8 |
| 20260901003021 | 57 | 180 | 0.0 | 1.0 | 0.00 | 0.00 | 0.00 | 94 | 1002.9 |
| 20260901000113 | 57 | 180 | 0.0 | 1.0 | 0.00 | 0.00 | 0.00 | 93 | 1002.8 |
| 20260831233101 | 57 | 180 | 0.0 | 1.0 | 0.00 | 0.00 | 0.00 | 93 | 1002.8 |
| 20260831230051 | 57 | 180 | 0.0 | 1.0 | 0.00 | 0.00 | 0.00 | 92 | 1003.0 |
| 20260831223041 | 57 | 155 | 0.0 | 1.0 | 0.00 | 0.01 | 0.00 | 92 | 1003.0 |
| 20260831220031 | 56 | 135 | 0.0 | 2.0 | 0.00 | 0.01 | 0.00 | 91 | 1003.0 |
| 20260831213021 | 57 | 135 | 0.0 | 2.0 | 0.00 | 0.01 | 0.01 | 89 | 1002.9 |
| 20260831210113 | 57 | 135 | 0.0 | 2.0 | 0.00 | 0.01 | 0.01 | 87 | 1002.9 |
| 20260831203102 | 59 | 101 | 1.0 | 2.0 | 0.00 | 0.01 | 0.01 | 85 | 1002.7 |
| 20260831200053 | 60 | 90 | 0.0 | 2.0 | 0.00 | 0.01 | 0.01 | 84 | 1002.6 |
| 20260831193122 | 61 | 98 | 0.0 | 2.0 | 0.00 | 0.01 | 0.01 | 82 | 1002.5 |
| 20260831190031 | 62 | 135 | 0.0 | 2.0 | 0.00 | 0.01 | 0.01 | 80 | 1002.5 |
| 20260831183103 | 63 | 135 | 1.0 | 2.0 | 0.00 | 0.01 | 0.01 | 75 | 1002.6 |
| 20260831180112 | 65 | 45 | 0.0 | 1.0 | 0.00 | 0.01 | 0.01 | 71 | 1002.5 |
| 20260831173102 | 66 | 164 | 0.0 | 3.0 | 0.00 | 0.02 | 0.01 | 68 | 1002.6 |
| 20260831170051 | 68 | 161 | 0.0 | 2.0 | 0.00 | 0.20 | 0.01 | 63 | 1002.6 |
| 20260831163041 | 69 | 202 | 0.0 | 3.0 | 0.00 | 0.20 | 0.01 | 61 | 1002.5 |
| 20260831160031 | 68 | 207 | 0.0 | 3.0 | 0.00 | 0.22 | 0.01 | 63 | 1002.5 |
| 20260831153023 | 67 | 214 | 1.0 | 3.0 | 0.00 | 0.22 | 0.01 | 64 | 1002.7 |
| 20260831150113 | 67 | 191 | 1.0 | 3.0 | 0.00 | 0.22 | 0.01 | 63 | 1002.7 |
| 20260831143101 | 68 | 190 | 3.0 | 7.0 | 0.00 | 0.22 | 0.01 | 61 | 1002.8 |